Location: Newark
(54.0500°N, 12.8333°E)
Time: 06:05:30
(UTC+00:00)

Tiros 1 despin weight - All Passes

Search period start: 29 January 2020 00:00
Search period end: 08 February 2020 00:00
Orbit: 594 x 642 km, 48.2° (Epoch: 28 January)

Date Brightness Start Highest point End Pass type
(mag) Time Alt. Az. Time Alt. Az. Time Alt. Az.
29 Jan - 09:07:45 10° SSW 09:10:55 19° SSE 09:14:07 10° ESE daylight
29 Jan - 10:47:31 10° SW 10:51:41 36° S 10:55:54 10° ESE daylight
29 Jan - 12:28:30 10° WSW 12:32:43 37° S 12:36:59 10° ESE daylight
29 Jan - 14:10:09 10° WSW 14:13:33 21° SSW 14:16:58 10° SSE daylight
30 Jan - 09:23:22 10° SSW 09:27:06 26° SSE 09:30:53 10° E daylight
30 Jan - 11:03:48 10° WSW 11:08:01 40° S 11:12:20 10° ESE daylight
30 Jan - 12:45:00 10° W 12:49:02 32° SSW 12:53:08 10° SE daylight
30 Jan - 14:27:18 10° WSW 14:29:41 14° SW 14:32:03 10° S daylight
31 Jan - 08:00:10 10° S 08:02:44 15° SE 08:05:19 10° ESE daylight
31 Jan - 09:39:20 10° SW 09:43:23 33° SSE 09:47:28 10° ESE daylight
31 Jan - 11:20:10 10° WSW 11:24:23 39° S 11:28:41 10° ESE daylight
31 Jan - 13:01:36 10° WSW 13:05:18 24° SSW 13:09:02 10° SSE daylight
01 Feb - 08:15:27 10° SSW 08:18:52 22° SSE 08:22:20 10° ESE daylight
01 Feb - 09:55:32 10° WSW 09:59:42 38° S 10:03:57 10° ESE daylight
01 Feb - 11:36:37 10° WSW 11:40:44 35° SSW 11:44:55 10° SE daylight
01 Feb - 13:18:27 10° WSW 13:21:29 18° SSW 13:24:32 10° S daylight
02 Feb - 06:53:06 10° SSE 06:54:34 11° SE 06:56:04 10° ESE daylight
02 Feb - 08:31:15 10° SW 08:35:06 29° SSE 08:39:01 10° E daylight
02 Feb - 10:11:51 10° WSW 10:16:04 40° S 10:20:21 10° ESE daylight
02 Feb - 11:53:08 10° W 11:57:02 28° SSW 12:00:58 10° SE daylight
02 Feb - 13:36:09 10° WSW 13:37:35 11° SW 13:39:00 10° SSW daylight
03 Feb - 07:07:41 10° S 07:10:40 18° SSE 07:13:40 10° ESE daylight
03 Feb - 08:47:19 10° SW 08:51:23 35° SSE 08:55:32 10° ESE daylight
03 Feb - 10:28:15 10° WSW 10:32:25 38° S 10:36:39 10° ESE daylight
03 Feb - 12:09:50 10° WSW 12:13:16 21° SSW 12:16:44 10° SSE daylight
04 Feb - 07:23:14 10° SSW 07:26:51 25° SSE 07:30:30 10° ESE daylight
04 Feb - 09:03:34 10° WSW 09:07:44 39° S 09:11:58 10° ESE daylight
04 Feb - 10:44:43 10° WSW 10:48:44 32° SSW 10:52:50 10° SE daylight
04 Feb - 12:26:54 10° WSW 12:29:25 15° SW 12:31:57 10° S daylight
05 Feb - 06:00:13 10° S 06:02:30 14° SE 06:04:47 10° ESE visible
05 Feb - 07:39:10 10° SW 07:43:07 32° SSE 07:47:06 10° ESE daylight
05 Feb - 09:19:55 10° WSW 09:24:06 39° S 09:28:20 10° ESE daylight
05 Feb - 11:01:19 10° WSW 11:05:01 25° SSW 11:08:46 10° SSE daylight
06 Feb - 06:15:21 10° SSW 06:18:37 20° SSE 06:21:55 10° ESE daylight
06 Feb - 07:55:19 10° WSW 07:59:26 37° S 08:03:35 10° ESE daylight
06 Feb - 09:36:21 10° WSW 09:40:27 35° SSW 09:44:36 10° SE daylight
06 Feb - 11:18:07 10° WSW 11:21:13 18° SSW 11:24:21 10° SSE daylight
07 Feb - 04:53:35 10° SSE 04:54:21 10° SE 04:55:07 10° SE visible
07 Feb - 06:31:05 10° SW 06:34:50 27° SSE 06:38:39 10° E daylight
07 Feb - 08:11:37 10° WSW 08:15:46 40° S 08:20:00 10° ESE daylight
07 Feb - 09:52:52 10° W 09:56:45 29° SSW 10:00:41 10° SE daylight
07 Feb - 11:35:36 10° WSW 11:37:19 12° SW 11:39:03 10° SSW daylight
